W7MB Weather Reports


time (UTC)temp
F
wind
direction
speed
knots
gust
knots
rain 1hr
in
rain 24hr
in
rain mn
in
humidity
%
barometer
mb
20260506221803 71 190 3.5 10.4 0.00 0.00 0.00 44 1014.3
20260506221203 71 189 3.5 11.3 0.00 0.00 0.00 44 1014.5
20260506220603 71 186 3.5 11.3 0.00 0.00 0.00 45 1014.4
20260506220003 71 180 4.3 11.3 0.00 0.00 0.00 46 1014.4
20260506215403 72 178 3.5 11.3 0.00 0.00 0.00 45 1014.4
20260506214803 72 187 2.6 12.2 0.00 0.00 0.00 46 1014.5
20260506214203 72 189 2.6 9.6 0.00 0.00 0.00 45 1014.5
20260506213603 72 202 2.6 9.6 0.00 0.00 0.00 46 1014.5
20260506213003 72 191 3.5 12.2 0.00 0.00 0.00 47 1014.6
20260506212403 72 181 3.5 14.8 0.00 0.00 0.00 45 1014.7
20260506211803 73 192 4.3 13.0 0.00 0.00 0.00 46 1014.6
20260506211203 73 198 4.3 13.0 0.00 0.00 0.00 45 1014.7
20260506210603 74 199 4.3 13.0 0.00 0.00 0.00 45 1014.6
20260506210004 74 203 4.3 13.9 0.00 0.00 0.00 45 1014.5
20260506205403 74 195 4.3 13.9 0.00 0.00 0.00 45 1014.5
20260506204803 74 205 3.5 12.2 0.00 0.00 0.00 45 1014.4
20260506204203 73 200 5.2 16.5 0.00 0.00 0.00 44 1014.4
20260506203603 74 195 5.2 16.5 0.00 0.00 0.00 43 1014.3
20260506203003 74 199 5.2 13.0 0.00 0.00 0.00 41 1014.3
20260506202403 75 203 4.3 13.0 0.00 0.00 0.00 39 1014.3
20260506201803 76 218 3.5 13.9 0.00 0.00 0.00 40 1014.2
20260506201203 76 223 3.5 8.7 0.00 0.00 0.00 44 1014.0
20260506200603 76 211 3.5 9.6 0.00 0.00 0.00 45 1014.0
20260506200004 75 189 4.3 13.9 0.00 0.00 0.00 44 1013.8
20260506195403 75 177 4.3 13.9 0.00 0.00 0.00 42 1013.9
20260506194803 76 195 4.3 13.9 0.00 0.00 0.00 41 1013.9
20260506194203 76 201 3.5 14.8 0.00 0.00 0.00 42 1013.8
20260506193603 76 225 3.5 12.2 0.00 0.00 0.00 45 1013.8
20260506193003 76 202 5.2 14.8 0.00 0.00 0.00 41 1013.8
20260506192403 76 200 4.3 14.8 0.00 0.00 0.00 41 1013.8
20260506191803 76 203 4.3 11.3 0.00 0.00 0.00 45 1014.0
20260506191203 76 198 4.3 15.6 0.00 0.00 0.00 42 1013.8
20260506190603 75 192 4.3 15.6 0.00 0.00 0.00 44 1014.0
20260506190005 76 196 4.3 14.8 0.00 0.00 0.00 43 1014.1
20260506185403 76 194 4.3 14.8 0.00 0.00 0.00 40 1013.9
20260506184803 76 203 3.5 13.9 0.00 0.00 0.00 43 1014.1
20260506184203 76 214 2.6 11.3 0.00 0.00 0.00 46 1014.1
20260506183603 75 205 3.5 12.2 0.00 0.00 0.00 49 1014.1
20260506183004 74 183 5.2 13.9 0.00 0.00 0.00 45 1014.0
20260506182403 74 192 4.3 14.8 0.00 0.00 0.00 47 1014.0
20260506181803 73 200 4.3 14.8 0.00 0.00 0.00 46 1014.0
20260506181203 72 197 3.5 12.2 0.00 0.00 0.00 48 1013.8
20260506180603 71 183 4.3 12.2 0.00 0.00 0.00 49 1013.9
20260506180005 70 170 7.0 13.9 0.00 0.00 0.00 50 1013.9
20260506175403 70 168 6.1 15.6 0.00 0.00 0.00 50 1014.0
20260506174803 70 169 6.1 15.6 0.00 0.00 0.00 49 1014.0
20260506174203 70 176 5.2 14.8 0.00 0.00 0.00 50 1014.1
20260506173603 69 176 5.2 13.0 0.00 0.00 0.00 52 1014.1
20260506173003 69 178 5.2 10.4 0.00 0.00 0.00 50 1014.2
20260506172403 69 196 2.6 8.7 0.00 0.00 0.00 51 1014.2
20260506171805 68 195 2.6 7.8 0.00 0.00 0.00 55 1014.3
20260506171203 66 180 3.5 9.6 0.00 0.00 0.00 59 1014.3
20260506170603 66 178 3.5 10.4 0.00 0.00 0.00 57 1014.4
20260506170004 65 183 4.3 13.9 0.00 0.00 0.00 59 1014.5
20260506165403 64 178 6.1 14.8 0.00 0.00 0.00 61 1014.4
20260506164804 64 166 4.3 14.8 0.00 0.00 0.00 57 1014.5
20260506164203 63 160 3.5 7.0 0.00 0.00 0.00 59 1014.5
20260506163603 63 171 4.3 11.3 0.00 0.00 0.00 61 1014.5
20260506163003 62 167 2.6 11.3 0.00 0.00 0.00 66 1014.5
20260506162403 61 110 0.9 5.2 0.00 0.00 0.00 71 1014.6
20260506161203 59 178 0.0 2.6 0.00 0.00 0.00 74 1014.7
20260506160603 58 173 0.0 3.5 0.00 0.00 0.00 76 1014.7
20260506160004 57 167 0.9 4.3 0.00 0.00 0.00 77 1014.6
20260506155403 56 151 0.0 1.7 0.00 0.00 0.00 80 1014.7
20260506154803 55 147 0.0 2.6 0.00 0.00 0.00 81 1014.6
20260506154204 54 139 0.0 2.6 0.00 0.00 0.00 81 1014.7
20260506153603 52 118 0.0 0.9 0.00 0.00 0.00 65 1014.8
20260506153003 51 0 0.0 0.0 0.00 0.00 0.00 60 1014.9
20260506152403 50 92 0.0 0.9 0.00 0.00 0.00 56 1015.0
20260506151803 49 92 0.9 1.7 0.00 0.00 0.00 62 1015.1
20260506151203 48 92 0.0 1.7 0.00 0.00 0.00 61 1015.0
20260506150603 47 92 0.0 0.9 0.00 0.00 0.00 61 1015.1
20260506150004 46 92 0.9 3.5 0.00 0.00 0.00 61 1015.2
20260506145403 46 85 1.7 3.5 0.00 0.00 0.00 62 1015.1
20260506144803 45 77 2.6 4.3 0.00 0.00 0.00 61 1015.1
20260506144203 44 77 1.7 4.3 0.00 0.00 0.00 63 1015.1
20260506143603 44 77 1.7 3.5 0.00 0.00 0.00 65 1015.1
20260506143003 44 59 2.6 3.5 0.00 0.00 0.00 64 1015.0
20260506142403 43 54 2.6 6.1 0.00 0.00 0.00 64 1015.1
20260506141803 43 69 2.6 6.1 0.00 0.00 0.00 66 1015.1
20260506141203 42 71 2.6 3.5 0.00 0.00 0.00 67 1015.2
20260506140603 42 57 1.7 3.5 0.00 0.00 0.00 70 1015.1
20260506140004 42 49 1.7 2.6 0.00 0.00 0.00 71 1015.1
20260506135403 42 38 2.6 7.0 0.00 0.00 0.00 68 1015.1
20260506134803 42 47 1.7 7.0 0.00 0.00 0.00 70 1015.2
20260506134203 42 58 2.6 5.2 0.00 0.00 0.00 69 1015.2
20260506133603 42 71 2.6 6.1 0.00 0.00 0.00 66 1015.0
20260506133003 42 72 2.6 6.1 0.00 0.00 0.00 66 1014.9
20260506132403 41 68 2.6 5.2 0.00 0.00 0.00 69 1014.9
20260506131803 41 75 2.6 5.2 0.00 0.00 0.00 70 1014.8
20260506131203 41 76 2.6 6.1 0.00 0.00 0.00 71 1014.8
20260506130603 41 72 1.7 3.5 0.00 0.00 0.00 73 1014.9
20260506130005 41 54 1.7 3.5 0.00 0.00 0.00 73 1014.9
20260506125403 41 58 1.7 3.5 0.00 0.00 0.00 73 1014.9
20260506124803 42 62 1.7 3.5 0.00 0.00 0.00 74 1014.9
20260506124203 42 68 1.7 6.1 0.00 0.00 0.00 74 1014.8
20260506123603 42 67 2.6 6.1 0.00 0.00 0.00 74 1014.7
20260506123003 42 79 1.7 5.2 0.00 0.00 0.00 75 1014.8
20260506122403 42 81 2.6 6.1 0.00 0.00 0.00 74 1014.7
20260506121803 42 75 2.6 6.1 0.00 0.00 0.00 75 1014.7
20260506121203 42 71 2.6 5.2 0.00 0.00 0.00 74 1014.6
20260506120603 42 80 2.6 5.2 0.00 0.00 0.00 74 1014.6
20260506120004 42 80 1.7 4.3 0.00 0.00 0.00 75 1014.6
20260506115403 42 80 2.6 6.1 0.00 0.00 0.00 75 1014.6
20260506114803 42 80 2.6 6.1 0.00 0.00 0.00 75 1014.5
20260506114203 42 85 2.6 6.1 0.00 0.00 0.00 75 1014.5
20260506113603 43 81 2.6 6.1 0.00 0.00 0.00 76 1014.5
20260506113003 43 74 2.6 6.1 0.00 0.00 0.00 74 1014.5
20260506112403 43 60 1.7 4.3 0.00 0.00 0.00 76 1014.5
20260506111803 43 55 1.7 2.6 0.00 0.00 0.00 76 1014.5
20260506111203 43 54 1.7 3.5 0.00 0.00 0.00 77 1014.4
20260506110603 43 40 1.7 2.6 0.00 0.00 0.00 77 1014.4
20260506110004 43 51 1.7 2.6 0.00 0.00 0.00 78 1014.4
20260506105403 43 74 1.7 5.2 0.00 0.00 0.00 78 1014.3
20260506104803 44 73 1.7 3.5 0.00 0.00 0.00 78 1014.2
20260506104203 44 80 2.6 5.2 0.00 0.00 0.00 78 1014.1
20260506103603 44 84 2.6 4.3 0.00 0.00 0.00 78 1014.1
20260506103003 44 90 0.9 3.5 0.00 0.00 0.00 78 1014.0
20260506102403 44 85 0.0 3.5 0.00 0.00 0.00 79 1014.0
20260506101803 44 0 0.0 0.0 0.00 0.00 0.00 79 1014.0
20260506101203 44 0 0.0 0.0 0.00 0.00 0.00 79 1014.0
20260506100603 45 0 0.0 0.0 0.00 0.00 0.00 80 1014.0
20260506100004 45 0 0.0 0.0 0.00 0.00 0.00 80 1013.9
20260506095403 45 0 0.0 0.0 0.00 0.00 0.00 79 1013.9
20260506094803 45 0 0.0 0.0 0.00 0.00 0.00 80 1013.9
20260506094203 45 0 0.0 0.0 0.00 0.00 0.00 80 1013.8
20260506093603 45 0 0.0 0.0 0.00 0.00 0.00 80 1013.8
20260506093217 45 0 0.0 0.0 0.00 0.00 0.00 80 1013.8
20260506092403 46 69 0.0 0.9 0.00 0.00 0.00 80 1013.8
20260506091803 46 73 0.0 0.9 0.00 0.00 0.00 81 1013.8
20260506091203 46 80 0.0 0.9 0.00 0.00 0.00 81 1013.9
20260506090603 46 0 0.0 0.0 0.00 0.00 0.00 81 1013.8
20260506090003 46 84 0.0 1.7 0.00 0.00 0.00 82 1013.8
20260506085403 46 0 0.0 0.0 0.00 0.00 0.00 82 1013.8
20260506084803 47 78 0.0 0.9 0.00 0.00 0.00 82 1013.7
20260506084203 47 77 0.0 1.7 0.00 0.00 0.00 82 1013.8
20260506083603 47 78 0.9 2.6 0.00 0.00 0.00 82 1013.7
20260506083003 47 78 0.0 2.6 0.00 0.00 0.00 82 1013.7
20260506082403 48 77 0.0 2.6 0.00 0.00 0.00 82 1013.7
20260506081803 48 90 0.9 3.5 0.00 0.00 0.00 82 1013.7
20260506081203 48 92 0.9 3.5 0.00 0.00 0.00 82 1013.7
20260506080603 49 91 0.9 2.6 0.00 0.00 0.00 82 1013.6
20260506073003 50 84 0.9 3.5 0.00 0.00 0.00 81 1013.4
20260506072403 51 79 0.9 3.5 0.00 0.00 0.00 80 1013.4
20260506071803 51 72 0.9 3.5 0.00 0.00 0.00 80 1013.4
20260506071203 51 72 0.0 2.6 0.00 0.00 0.00 80 1013.4
20260506070603 51 80 0.0 6.1 0.00 0.00 0.00 80 1013.3
20260506062403 52 0 0.0 0.0 0.00 0.00 0.00 79 1013.0
20260506061803 52 0 0.0 0.0 0.00 0.00 0.00 79 1013.0
20260506061203 52 0 0.0 0.0 0.00 0.00 0.00 79 1013.0
20260506060603 53 0 0.0 0.0 0.00 0.00 0.00 79 1013.0
20260506051203 56 0 0.0 0.0 0.00 0.00 0.00 74 1012.7
20260506050603 56 0 0.0 0.0 0.00 0.00 0.00 73 1012.7
20260506044803 58 0 0.0 0.0 0.00 0.00 0.00 72 1012.5
20260506044203 58 0 0.0 0.0 0.00 0.00 0.00 70 1012.4
20260506043603 59 0 0.0 0.0 0.00 0.00 0.00 69 1012.4
20260506043003 59 0 0.0 0.0 0.00 0.00 0.00 69 1012.4
20260506042403 60 0 0.0 0.0 0.00 0.00 0.00 68 1012.3
20260506041803 61 0 0.0 0.0 0.00 0.00 0.00 67 1012.3
20260506041203 62 0 0.0 0.0 0.00 0.00 0.00 66 1012.1
20260506040603 62 0 0.0 0.0 0.00 0.00 0.00 65 1012.1
20260506040003 63 0 0.0 0.0 0.00 0.00 0.00 64 1012.0
20260506035403 64 0 0.0 0.0 0.00 0.00 0.00 62 1011.9
20260506034803 64 0 0.0 0.0 0.00 0.00 0.00 61 1011.8
20260506034203 65 0 0.0 0.0 0.00 0.00 0.00 60 1011.7
20260506033603 66 221 0.0 4.3 0.00 0.00 0.00 59 1011.5
20260506033003 66 221 0.0 4.3 0.00 0.00 0.00 57 1011.5
20260506032403 67 178 0.0 2.6 0.00 0.00 0.00 56 1011.4
20260506031803 68 182 0.9 4.3 0.00 0.00 0.00 53 1011.3
20260506031203 68 170 0.9 5.2 0.00 0.00 0.00 52 1011.2
20260506030603 69 148 1.7 6.1 0.00 0.00 0.00 51 1011.1
20260506030004 69 159 2.6 6.1 0.00 0.00 0.00 51 1011.1
20260506025403 70 170 3.5 8.7 0.00 0.00 0.00 50 1011.0
20260506024803 70 169 3.5 8.7 0.00 0.00 0.00 49 1010.9
20260506024203 71 173 2.6 8.7 0.00 0.00 0.00 48 1010.8
20260506023603 72 179 2.6 7.8 0.00 0.00 0.00 47 1010.7
20260506023003 72 177 1.7 7.8 0.00 0.00 0.00 46 1010.7
20260506022403 73 179 1.7 4.3 0.00 0.00 0.00 46 1010.6
20260506021803 74 174 2.6 7.8 0.00 0.00 0.00 44 1010.6
20260506021203 74 176 3.5 9.6 0.00 0.00 0.00 43 1010.6
20260506020603 76 180 2.6 9.6 0.00 0.00 0.00 42 1010.5
20260506020003 77 178 1.7 5.2 0.00 0.00 0.00 41 1010.4
20260506015403 78 186 1.7 8.7 0.00 0.00 0.00 39 1010.4
20260506014803 78 190 3.5 12.2 0.00 0.00 0.00 39 1010.4
20260506014203 78 196 3.5 12.2 0.00 0.00 0.00 37 1010.4
20260506013603 79 195 3.5 10.4 0.00 0.00 0.00 38 1010.3
20260506013003 79 187 3.5 12.2 0.00 0.00 0.00 36 1010.3
20260506012403 80 175 3.5 12.2 0.00 0.00 0.00 36 1010.2
20260506011803 81 182 1.7 12.2 0.00 0.00 0.00 33 1010.2
20260506011203 81 198 2.6 15.6 0.00 0.00 0.00 34 1010.2
20260506010603 81 194 3.5 15.6 0.00 0.00 0.00 33 1010.2
20260506010004 82 183 3.5 12.2 0.00 0.00 0.00 33 1010.2
20260506005403 82 193 2.6 12.2 0.00 0.00 0.00 32 1010.1
20260506004803 83 193 1.7 12.2 0.00 0.00 0.00 30 1010.0
20260506004203 83 197 3.5 12.2 0.00 0.00 0.00 32 1010.1
20260506003603 83 194 4.3 12.2 0.00 0.00 0.00 31 1010.1
20260506003003 84 206 2.6 9.6 0.00 0.00 0.00 30 1010.2
20260506002403 85 184 1.7 13.0 0.00 0.00 0.00 29 1010.0
20260506001803 85 202 2.6 13.0 0.00 0.00 0.00 27 1010.0
20260506001203 86 196 1.7 10.4 0.00 0.00 0.00 26 1010.0
20260506000603 86 221 1.7 10.4 0.00 0.00 0.00 26 1010.0
20260506000004 87 234 0.9 8.7 0.00 0.00 0.00 25 1010.3
20260505235403 87 240 1.7 10.4 0.00 0.00 0.00 27 1010.1
20260505234803 87 226 0.9 10.4 0.00 0.00 0.00 25 1010.3
20260505234203 87 232 0.9 7.8 0.00 0.00 0.00 24 1010.3
20260505233603 87 245 2.6 9.6 0.00 0.00 0.00 24 1010.3
20260505233003 87 235 1.7 8.7 0.00 0.00 0.00 26 1010.2
20260505232403 88 243 0.9 7.0 0.00 0.00 0.00 25 1010.3
20260505231803 88 201 1.7 8.7 0.00 0.00 0.00 27 1010.3
20260505231203 87 237 1.7 10.4 0.00 0.00 0.00 26 1010.3
20260505230603 87 257 0.9 7.8 0.00 0.00 0.00 27 1010.4
20260505230004 86 205 1.7 13.0 0.00 0.00 0.00 29 1010.4
20260505225403 85 189 2.6 13.0 0.00 0.00 0.00 32 1010.4
20260505224803 85 196 1.7 7.8 0.00 0.00 0.00 30 1010.5
20260505224203 85 193 3.5 14.8 0.00 0.00 0.00 30 1010.4
20260505223603 84 192 3.5 14.8 0.00 0.00 0.00 31 1010.5
20260505223003 83 201 1.7 13.0 0.00 0.00 0.00 37 1010.6
20260505222403 81 302 0.9 4.3 0.00 0.00 0.00 39 1010.6